Flag for Ukraine Weather past 2 weeks in Odesa, Ukraine

Now
63 °F

Passing clouds.


Feels Like: 63 °F
Forecast: 63 / 77 °F
Wind: 8 mph from North

Location: Odesa Airport

Current Time: Jul 2, 2015 at 10:11:41 PM

Latest Report: Jul 2, 2015 at 10:00 PM


Visibility: N/A

Pressure: 30.12 "Hg

Humidity: 83%

Dew point: 57 °F

Location of OdesaLocation

Historic Weather in Odesa — Graph

°F

Odesa temperature yesterday

Maximum temperature yesterday: 82 °F (at 1:00 PM)
Minimum temperature yesterday: 55 °F (at 5:00 AM)
Average temperature yesterday: 71 °F

Past Weeks' High & Low Weather Summary

 TemperatureHumidityPressure
High88 °F (Jun 25, 2:00 PM)100% (Jun 23, 5:30 AM)30.12 "Hg (Jun 23, 5:30 AM)
Low54 °F (Jun 20, 2:30 AM)26% (Jun 29, 4:30 PM)29.68 "Hg (Jun 19, 6:30 PM)
Average69 °F60%29.86 "Hg
* Reported Jun 17 9:00 PM — Jul 2 9:00 PM, Odesa, Weather by CustomWeather, © 2015

Note: Actual official high and low records may vary slightly from our data, if they occured in-between our weather recording intervals... More about our weather records

Advertising

Odesa weather history for previous 24 hours

 ConditionsComfort  
Time TempWeatherWind HumidityBarometerVisibility
9:00 PM
Thu, Jul 2
64 °FPartly sunny.6 mph78%30.09 "HgN/A
8:30 PM64 °FPartly sunny.1 mph78%30.09 "HgN/A
8:00 PM66 °FBroken clouds.8 mph78%30.09 "HgN/A
7:30 PM68 °FThundershowers. Broken clouds.6 mph64%30.09 "HgN/A
7:00 PM68 °FThundershowers. Broken clouds.1 mph64%30.09 "HgN/A
6:30 PM68 °FBroken clouds.No wind69%30.09 "HgN/A
6:00 PM66 °FBroken clouds.6 mph78%30.09 "HgN/A
5:30 PM66 °FBroken clouds.3 mph83%30.09 "HgN/A
5:00 PM64 °FBroken clouds.1 mph94%30.09 "HgN/A
4:30 PM63 °FBroken clouds.3 mph94%30.09 "HgN/A
4:00 PM63 °FThunderstorms. Broken clouds.8 mph94%30.09 "HgN/A
3:30 PM63 °FThunderstorms. Partly sunny.6 mph94%30.09 "HgN/A
3:00 PM61 °FThunderstorms. More clouds than sun.13 mph100%30.09 "Hg1 mi
2:30 PM75 °FThundershowers. Broken clouds.8 mph57%30.07 "HgN/A
2:00 PM77 °FPartly sunny.3 mph44%30.07 "HgN/A
1:30 PM75 °FPartly sunny.6 mph50%30.07 "HgN/A
1:00 PM75 °FPartly sunny.6 mph50%30.07 "HgN/A
12:30 PM75 °FScattered clouds.3 mph54%30.07 "HgN/A
12:00 PM73 °FScattered clouds.8 mph57%30.09 "HgN/A
11:30 AM73 °FScattered clouds.6 mph57%30.09 "HgN/A
11:00 AM73 °FScattered clouds.6 mph61%30.09 "HgN/A
10:30 AM73 °FScattered clouds.6 mph61%30.09 "HgN/A
10:00 AM72 °FScattered clouds.6 mph69%30.09 "HgN/A
9:30 AM72 °FScattered clouds.6 mph69%30.09 "HgN/A
9:00 AM70 °FScattered clouds.6 mph73%30.09 "HgN/A
8:30 AM68 °FPassing clouds.6 mph83%30.09 "HgN/A
8:00 AM66 °FSunny.6 mph88%30.09 "Hg10 mi
7:00 AM64 °FPartly sunny.6 mph100%30.09 "HgN/A
6:30 AM64 °FPartly sunny.6 mph94%30.09 "HgN/A
6:00 AM64 °FPassing clouds.No wind94%30.07 "HgN/A
5:30 AM64 °FPartly cloudy.No wind94%30.07 "HgN/A
5:00 AM64 °FThundershowers. Mostly cloudy.3 mph88%30.07 "Hg2 mi
4:30 AM64 °FPassing clouds.3 mph88%30.07 "HgN/A
4:00 AM64 °FSprinkles. Partly cloudy.3 mph88%30.07 "HgN/A
3:30 AM68 °FSprinkles. Passing clouds.6 mph69%30.09 "HgN/A
3:00 AM68 °FClear.6 mph69%30.09 "Hg10 mi
2:30 AM68 °FClear.6 mph64%30.09 "Hg10 mi
2:00 AM66 °FClear.3 mph68%30.09 "Hg10 mi
1:30 AM66 °FClear.3 mph68%30.09 "Hg10 mi
1:00 AM66 °FClear.3 mph68%30.09 "Hg10 mi
12:00 AM66 °FClear.3 mph68%30.09 "Hg10 mi
11:30 PM
Wed, Jul 1
66 °FClear.3 mph68%30.09 "Hg10 mi
11:00 PM66 °FClear.6 mph68%30.09 "Hg10 mi
10:30 PM66 °FClear.6 mph68%30.09 "Hg10 mi
10:00 PM68 °FClear.3 mph69%30.09 "Hg10 mi
Weather by CustomWeather, © 2015

See weather overviewHow to use our weather pages